SR3WXA Weather Reports


time (UTC)temp
F
wind
direction
speed
knots
gust
knots
rain 1hr
in
rain 24hr
in
rain mn
in
humidity
%
barometer
mb
20260904175929 66 0 0.0 0.0 0.13 0.13 0.13 93 1004.9
20260904175523 66 0 0.0 0.0 0.12 0.12 0.12 94 1005.0
20260904175414 66 0 0.0 0.0 0.12 0.12 0.12 94 1005.0
20260904175043 66 0 0.0 0.0 0.11 0.11 0.11 94 1004.9
20260904174914 66 0 0.0 0.0 0.11 0.11 0.11 94 1004.9
20260904174550 67 0 0.0 0.0 0.10 0.10 0.10 94 1004.9
20260904174414 67 0 0.0 0.0 0.10 0.10 0.10 94 1004.9
20260904173914 67 0 0.0 0.0 0.10 0.10 0.10 94 1004.8
20260904173518 67 0 0.0 0.0 0.08 0.08 0.08 94 1004.9
20260904173414 67 0 0.0 0.0 0.08 0.08 0.08 94 1004.9
20260904173035 67 0 0.0 0.0 0.08 0.08 0.08 93 1004.9
20260904172914 67 0 0.0 0.0 0.08 0.08 0.08 93 1004.9
20260904172621 68 0 0.0 0.0 0.07 0.07 0.07 92 1004.9
20260904172414 68 0 0.0 0.0 0.07 0.07 0.07 92 1004.9
20260904172012 68 0 0.0 0.0 0.06 0.06 0.06 92 1004.8
20260904171914 68 0 0.0 0.0 0.06 0.06 0.06 92 1004.8
20260904171515 68 0 0.0 0.0 0.04 0.04 0.04 90 1004.4
20260904171414 68 0 0.0 0.0 0.04 0.04 0.04 90 1004.4
20260904170521 71 0 0.0 0.0 0.02 0.02 0.02 83 1004.5
20260904170418 71 0 0.0 0.0 0.02 0.02 0.02 83 1004.5
20260904170040 74 0 0.0 0.0 0.00 0.00 0.00 77 1004.4
20260904165918 74 0 0.0 0.0 0.00 0.00 0.00 77 1004.4
20260904165529 75 0 0.0 0.0 0.00 0.00 0.00 73 1003.2
20260904165418 75 0 0.0 0.0 0.00 0.00 0.00 73 1003.2
20260904165030 76 0 0.0 0.0 0.00 0.00 0.00 71 1003.0
20260904164918 76 0 0.0 0.0 0.00 0.00 0.00 71 1003.0
20260904164516 76 0 0.0 0.0 0.00 0.00 0.00 69 1003.0
20260904164419 76 0 0.0 0.0 0.00 0.00 0.00 69 1003.0
20260904163455 76 0 0.0 0.0 0.00 0.00 0.00 68 1003.0
20260904163418 76 0 0.0 0.0 0.00 0.00 0.00 68 1003.0
20260904163034 76 0 0.0 0.0 0.00 0.00 0.00 68 1003.1
20260904162918 76 0 0.0 0.0 0.00 0.00 0.00 68 1003.1
20260904162101 76 0 0.0 0.0 0.00 0.00 0.00 68 1003.0
20260904161950 76 0 0.0 0.0 0.00 0.00 0.00 68 1003.0
20260904161556 76 0 0.0 0.0 0.00 0.00 0.00 68 1003.1
20260904161450 76 0 0.0 0.0 0.00 0.00 0.00 68 1003.1
20260904161030 76 0 0.0 0.0 0.00 0.00 0.00 68 1003.0
20260904160951 76 0 0.0 0.0 0.00 0.00 0.00 68 1003.0
20260904160540 76 0 0.0 0.0 0.00 0.00 0.00 68 1003.2
20260904160450 76 0 0.0 0.0 0.00 0.00 0.00 68 1003.2
20260904160059 76 0 0.0 0.0 0.00 0.00 0.00 68 1003.3
20260904155950 76 0 0.0 0.0 0.00 0.00 0.00 68 1003.3
20260904155626 76 0 0.0 0.0 0.00 0.00 0.00 68 1003.3
20260904155450 76 0 0.0 0.0 0.00 0.00 0.00 68 1003.3
20260904155036 77 0 0.0 0.0 0.00 0.00 0.00 68 1003.3
20260904154951 77 0 0.0 0.0 0.00 0.00 0.00 68 1003.3
20260904154634 77 0 0.0 0.0 0.00 0.00 0.00 68 1003.5
20260904154451 77 0 0.0 0.0 0.00 0.00 0.00 68 1003.5
20260904154108 76 0 0.0 0.0 0.00 0.00 0.00 68 1003.6
20260904153951 76 0 0.0 0.0 0.00 0.00 0.00 68 1003.6
20260904153559 76 0 0.0 0.0 0.00 0.00 0.00 69 1003.7
20260904153450 76 0 0.0 0.0 0.00 0.00 0.00 69 1003.7
20260904153114 76 0 0.0 0.0 0.00 0.00 0.00 68 1003.6
20260904152952 76 0 0.0 0.0 0.00 0.00 0.00 68 1003.6
20260904152607 76 0 0.0 0.0 0.00 0.00 0.00 68 1003.9
20260904152450 76 0 0.0 0.0 0.00 0.00 0.00 68 1003.9
20260904152112 76 0 0.0 0.0 0.00 0.00 0.00 68 1003.9
20260904151950 76 0 0.0 0.0 0.00 0.00 0.00 68 1003.9
20260904151608 76 0 0.0 0.0 0.00 0.00 0.00 68 1003.9
20260904151450 76 0 0.0 0.0 0.00 0.00 0.00 68 1003.9
20260904151043 76 0 0.0 0.0 0.00 0.00 0.00 68 1004.0
20260904150951 76 0 0.0 0.0 0.00 0.00 0.00 68 1004.0
20260904150619 76 0 0.0 0.0 0.00 0.00 0.00 68 1004.1
20260904150450 76 0 0.0 0.0 0.00 0.00 0.00 68 1004.1
20260904150129 76 0 0.0 0.0 0.00 0.00 0.00 68 1003.9
20260904145951 76 0 0.0 0.0 0.00 0.00 0.00 68 1003.9
20260904145708 76 0 0.0 0.0 0.00 0.00 0.00 68 1004.1
20260904145450 76 0 0.0 0.0 0.00 0.00 0.00 68 1004.1
20260904145038 76 0 0.0 0.0 0.00 0.00 0.00 68 1004.2
20260904144951 76 0 0.0 0.0 0.00 0.00 0.00 68 1004.2
20260904144559 76 0 0.0 0.0 0.00 0.00 0.00 68 1004.3
20260904144450 76 0 0.0 0.0 0.00 0.00 0.00 68 1004.3
20260904143900 76 0 0.0 0.0 0.00 0.00 0.00 68 1004.5
20260904143730 76 0 0.0 0.0 0.00 0.00 0.00 68 1004.5
20260904143328 76 0 0.0 0.0 0.00 0.00 0.00 67 1004.6
20260904143230 76 0 0.0 0.0 0.00 0.00 0.00 67 1004.6
20260904142914 76 0 0.0 0.0 0.00 0.00 0.00 67 1004.7
20260904142730 76 0 0.0 0.0 0.00 0.00 0.00 67 1004.7
20260904142306 76 0 0.0 0.0 0.00 0.00 0.00 68 1004.7
20260904142230 76 0 0.0 0.0 0.00 0.00 0.00 68 1004.7
20260904141858 76 0 0.0 0.0 0.00 0.00 0.00 68 1004.9
20260904141730 76 0 0.0 0.0 0.00 0.00 0.00 68 1004.9
20260904141230 76 0 0.0 0.0 0.00 0.00 0.00 68 1004.9
20260904140730 76 0 0.0 0.0 0.00 0.00 0.00 69 1005.0
20260904140343 75 0 0.0 0.0 0.00 0.00 0.00 69 1005.0
20260904140230 75 0 0.0 0.0 0.00 0.00 0.00 69 1005.0
20260904135859 75 0 0.0 0.0 0.00 0.00 0.00 70 1005.2
20260904135731 75 0 0.0 0.0 0.00 0.00 0.00 70 1005.2
20260904135416 75 0 0.0 0.0 0.00 0.00 0.00 70 1005.3
20260904135230 75 0 0.0 0.0 0.00 0.00 0.00 70 1005.3
20260904134655 75 0 0.0 0.0 0.00 0.00 0.00 70 1005.5
20260904134509 75 0 0.0 0.0 0.00 0.00 0.00 70 1005.5
20260904134009 75 0 0.0 0.0 0.00 0.00 0.00 72 1005.5
20260904133156 74 0 0.0 0.0 0.00 0.00 0.00 73 1005.6
20260904133055 74 0 0.0 0.0 0.00 0.00 0.00 73 1005.6
20260904132705 74 0 0.0 0.0 0.00 0.00 0.00 74 1005.7
20260904132555 74 0 0.0 0.0 0.00 0.00 0.00 74 1005.7
20260904131826 74 0 0.0 0.0 0.00 0.00 0.00 75 1005.9
20260904131721 74 0 0.0 0.0 0.00 0.00 0.00 75 1005.9
20260904131316 73 0 0.0 0.0 0.00 0.00 0.00 76 1006.0
20260904131221 73 0 0.0 0.0 0.00 0.00 0.00 76 1006.0
20260904130922 73 0 0.0 0.0 0.00 0.00 0.00 76 1006.0
20260904130721 73 0 0.0 0.0 0.00 0.00 0.00 76 1006.0
20260904130417 73 0 0.0 0.0 0.00 0.00 0.00 76 1006.4
20260904130221 73 0 0.0 0.0 0.00 0.00 0.00 76 1006.4
20260904125908 72 0 0.0 0.0 0.00 0.00 0.00 76 1006.5
20260904125721 72 0 0.0 0.0 0.00 0.00 0.00 76 1006.5
20260904125301 73 0 0.0 0.0 0.00 0.00 0.00 75 1006.7
20260904125221 73 0 0.0 0.0 0.00 0.00 0.00 75 1006.7
20260904124834 73 0 0.0 0.0 0.00 0.00 0.00 75 1006.8
20260904124721 73 0 0.0 0.0 0.00 0.00 0.00 75 1006.8
20260904124422 73 0 0.0 0.0 0.00 0.00 0.00 74 1006.8
20260904124221 73 0 0.0 0.0 0.00 0.00 0.00 74 1006.8
20260904123421 73 0 0.0 0.0 0.00 0.00 0.00 75 1007.0
20260904123255 73 0 0.0 0.0 0.00 0.00 0.00 75 1007.0
20260904122352 72 0 0.0 0.0 0.00 0.00 0.00 75 1007.2
20260904122253 72 0 0.0 0.0 0.00 0.00 0.00 75 1007.2
20260904121755 72 0 0.0 0.0 0.00 0.00 0.00 75 1007.3
20260904121354 72 0 0.0 0.0 0.00 0.00 0.00 75 1007.4
20260904121253 72 0 0.0 0.0 0.00 0.00 0.00 75 1007.4
20260904120341 72 0 0.0 0.0 0.00 0.00 0.00 74 1007.8
20260904120254 72 0 0.0 0.0 0.00 0.00 0.00 74 1007.8
20260904115836 72 0 0.0 0.0 0.00 0.00 0.00 73 1008.1
20260904115558 72 0 0.0 0.0 0.00 0.00 0.00 73 1008.1
20260904115255 72 0 0.0 0.0 0.00 0.00 0.00 73 1008.0
20260904115058 72 0 0.0 0.0 0.00 0.00 0.00 73 1008.0
20260904114747 72 0 0.0 0.0 0.00 0.00 0.00 73 1008.1
20260904114558 72 0 0.0 0.0 0.00 0.00 0.00 73 1008.1
20260904114111 72 0 0.0 0.0 0.00 0.00 0.00 73 1008.2
20260904113957 72 0 0.0 0.0 0.00 0.00 0.00 73 1008.2
20260904113623 71 0 0.0 0.0 0.00 0.00 0.00 73 1008.3
20260904113457 71 0 0.0 0.0 0.00 0.00 0.00 73 1008.3
20260904113121 71 0 0.0 0.0 0.00 0.00 0.00 73 1008.6
20260904112957 71 0 0.0 0.0 0.00 0.00 0.00 73 1008.6
20260904112554 71 0 0.0 0.0 0.00 0.00 0.00 72 1008.4
20260904112457 71 0 0.0 0.0 0.00 0.00 0.00 72 1008.4
20260904112032 71 0 0.0 0.0 0.00 0.00 0.00 72 1008.6
20260904111957 71 0 0.0 0.0 0.00 0.00 0.00 72 1008.6
20260904111557 71 0 0.0 0.0 0.00 0.00 0.00 72 1008.8
20260904111457 71 0 0.0 0.0 0.00 0.00 0.00 72 1008.8
20260904110957 71 0 0.0 0.0 0.00 0.00 0.00 72 1008.8
20260904110620 71 0 0.0 0.0 0.00 0.00 0.00 73 1009.1
20260904110457 71 0 0.0 0.0 0.00 0.00 0.00 73 1009.1
20260904110041 70 0 0.0 0.0 0.00 0.00 0.00 73 1009.1
20260904105957 70 0 0.0 0.0 0.00 0.00 0.00 73 1009.1
20260904105055 70 0 0.0 0.0 0.00 0.00 0.00 73 1009.2
20260904104957 70 0 0.0 0.0 0.00 0.00 0.00 73 1009.2
20260904104628 70 0 0.0 0.0 0.00 0.00 0.00 73 1009.3
20260904104457 70 0 0.0 0.0 0.00 0.00 0.00 73 1009.3
20260904103957 70 0 0.0 0.0 0.00 0.00 0.00 73 1009.4
20260904103551 71 0 0.0 0.0 0.00 0.00 0.00 73 1009.5
20260904103457 71 0 0.0 0.0 0.00 0.00 0.00 73 1009.5
20260904102705 71 0 0.0 0.0 0.00 0.00 0.00 71 1009.8
20260904102456 71 0 0.0 0.0 0.00 0.00 0.00 71 1009.8
20260904102121 71 0 0.0 0.0 0.00 0.00 0.00 71 1009.8
20260904101957 71 0 0.0 0.0 0.00 0.00 0.00 71 1009.8
20260904101657 71 0 0.0 0.0 0.00 0.00 0.00 72 1009.8
20260904101456 71 0 0.0 0.0 0.00 0.00 0.00 72 1009.8
20260904101105 70 0 0.0 0.0 0.00 0.00 0.00 73 1009.8
20260904100956 70 0 0.0 0.0 0.00 0.00 0.00 73 1009.8
20260904100149 70 0 0.0 0.0 0.00 0.00 0.00 74 1009.9
20260904095221 69 0 0.0 0.0 0.00 0.00 0.00 76 1010.4
20260904095148 69 0 0.0 0.0 0.00 0.00 0.00 76 1010.4
20260904094648 69 0 0.0 0.0 0.00 0.00 0.00 77 1010.4
20260904094319 69 0 0.0 0.0 0.00 0.00 0.00 77 1010.5
20260904094148 69 0 0.0 0.0 0.00 0.00 0.00 77 1010.5
20260904093857 69 0 0.0 0.0 0.00 0.00 0.00 78 1010.6
20260904093648 69 0 0.0 0.0 0.00 0.00 0.00 78 1010.6
20260904093310 69 0 0.0 0.0 0.00 0.00 0.00 78 1010.7
20260904093149 69 0 0.0 0.0 0.00 0.00 0.00 78 1010.7
20260904092028 68 0 0.0 0.0 0.00 0.00 0.00 80 1010.9
20260904091647 68 0 0.0 0.0 0.00 0.00 0.00 80 1011.0
20260904091526 68 0 0.0 0.0 0.00 0.00 0.00 80 1011.0
20260904090734 68 0 0.0 0.0 0.00 0.00 0.00 80 1011.2
20260904090526 68 0 0.0 0.0 0.00 0.00 0.00 80 1011.2
20260904085714 68 0 0.0 0.0 0.00 0.00 0.00 80 1011.5
20260904085526 68 0 0.0 0.0 0.00 0.00 0.00 80 1011.5
20260904084712 68 0 0.0 0.0 0.00 0.00 0.00 81 1011.2
20260904084526 68 0 0.0 0.0 0.00 0.00 0.00 81 1011.2
20260904083604 68 0 0.0 0.0 0.00 0.00 0.00 81 1011.3
20260904083511 68 0 0.0 0.0 0.00 0.00 0.00 81 1011.3
20260904081819 67 0 0.0 0.0 0.00 0.00 0.00 81 1011.6
20260904081619 67 0 0.0 0.0 0.00 0.00 0.00 81 1011.6
20260904081119 67 0 0.0 0.0 0.00 0.00 0.00 80 1011.6
20260904080619 67 0 0.0 0.0 0.00 0.00 0.00 80 1011.6
20260904080304 67 0 0.0 0.0 0.00 0.00 0.00 80 1011.7
20260904080119 67 0 0.0 0.0 0.00 0.00 0.00 80 1011.7
20260904075829 67 0 0.0 0.0 0.00 0.00 0.00 80 1011.6
20260904075619 67 0 0.0 0.0 0.00 0.00 0.00 80 1011.6
20260904075248 67 0 0.0 0.0 0.00 0.00 0.00 80 1011.6
20260904075119 67 0 0.0 0.0 0.00 0.00 0.00 80 1011.6
20260904074753 66 0 0.0 0.0 0.00 0.00 0.00 80 1011.7
20260904074619 66 0 0.0 0.0 0.00 0.00 0.00 80 1011.7
20260904074229 66 0 0.0 0.0 0.00 0.00 0.00 80 1011.9
20260904074120 66 0 0.0 0.0 0.00 0.00 0.00 80 1011.9
20260904073157 66 0 0.0 0.0 0.00 0.00 0.00 80 1011.9
20260904072821 66 0 0.0 0.0 0.00 0.00 0.00 80 1011.8
20260904072657 66 0 0.0 0.0 0.00 0.00 0.00 80 1011.8
20260904072318 66 0 0.0 0.0 0.00 0.00 0.00 81 1011.8
20260904072157 66 0 0.0 0.0 0.00 0.00 0.00 81 1011.8
20260904071658 66 0 0.0 0.0 0.00 0.00 0.00 81 1011.9
20260904071314 66 0 0.0 0.0 0.00 0.00 0.00 82 1011.9
20260904071158 66 0 0.0 0.0 0.00 0.00 0.00 82 1011.9
20260904070829 66 0 0.0 0.0 0.00 0.00 0.00 82 1012.0
20260904070657 66 0 0.0 0.0 0.00 0.00 0.00 82 1012.0
20260904070307 66 0 0.0 0.0 0.00 0.00 0.00 82 1012.1
20260904070157 66 0 0.0 0.0 0.00 0.00 0.00 82 1012.1
20260904065240 65 0 0.0 0.0 0.00 0.00 0.00 82 1012.0
20260904065158 65 0 0.0 0.0 0.00 0.00 0.00 82 1012.0
20260904064250 65 0 0.0 0.0 0.00 0.00 0.00 84 1012.0
20260904063906 65 0 0.0 0.0 0.00 0.00 0.00 85 1012.1
20260904063750 65 0 0.0 0.0 0.00 0.00 0.00 85 1012.1
20260904063427 65 0 0.0 0.0 0.00 0.00 0.00 85 1012.2
20260904063250 65 0 0.0 0.0 0.00 0.00 0.00 85 1012.2
20260904062751 65 0 0.0 0.0 0.00 0.00 0.00 86 1012.2
20260904062338 64 0 0.0 0.0 0.00 0.00 0.00 86 1012.3
20260904062250 64 0 0.0 0.0 0.00 0.00 0.00 86 1012.3
20260904061750 64 0 0.0 0.0 0.00 0.00 0.00 86 1012.4
20260904061252 64 0 0.0 0.0 0.00 0.00 0.00 86 1012.5
20260904060856 64 0 0.0 0.0 0.00 0.00 0.00 87 1012.5
20260904060750 64 0 0.0 0.0 0.00 0.00 0.00 87 1012.5
20260904060352 64 0 0.0 0.0 0.00 0.00 0.00 87 1012.5
20260904060250 64 0 0.0 0.0 0.00 0.00 0.00 87 1012.5
20260904055655 64 0 0.0 0.0 0.00 0.00 0.00 87 1012.4
20260904055621 64 0 0.0 0.0 0.00 0.00 0.00 87 1012.4
20260904055223 64 0 0.0 0.0 0.00 0.00 0.00 87 1012.4
20260904055121 64 0 0.0 0.0 0.00 0.00 0.00 87 1012.4
20260904054619 64 0 0.0 0.0 0.00 0.00 0.00 87 1012.5
20260904054209 64 0 0.0 0.0 0.00 0.00 0.00 87 1012.4
20260904054118 64 0 0.0 0.0 0.00 0.00 0.00 87 1012.4
20260904052745 64 0 0.0 0.0 0.00 0.00 0.00 87 1012.5
20260904052618 64 0 0.0 0.0 0.00 0.00 0.00 87 1012.5
20260904052213 64 0 0.0 0.0 0.00 0.00 0.00 87 1012.7
20260904052118 64 0 0.0 0.0 0.00 0.00 0.00 87 1012.7
20260904051720 64 0 0.0 0.0 0.00 0.00 0.00 87 1012.6
20260904051617 64 0 0.0 0.0 0.00 0.00 0.00 87 1012.6
20260904051219 64 0 0.0 0.0 0.00 0.00 0.00 88 1012.7
20260904051118 64 0 0.0 0.0 0.00 0.00 0.00 88 1012.7
20260904050810 63 0 0.0 0.0 0.00 0.00 0.00 88 1012.7
20260904050618 63 0 0.0 0.0 0.00 0.00 0.00 88 1012.7
20260904050117 63 0 0.0 0.0 0.00 0.00 0.00 88 1012.7
20260904045702 63 0 0.0 0.0 0.00 0.00 0.00 88 1012.7
20260904045618 63 0 0.0 0.0 0.00 0.00 0.00 88 1012.7
20260904045227 63 0 0.0 0.0 0.00 0.00 0.00 89 1012.7
20260904045117 63 0 0.0 0.0 0.00 0.00 0.00 89 1012.7
20260904044910 63 0 0.0 0.0 0.00 0.00 0.00 89 1012.6
20260904044617 63 0 0.0 0.0 0.00 0.00 0.00 89 1012.6
20260904044315 63 0 0.0 0.0 0.00 0.00 0.00 89 1012.7
20260904044117 63 0 0.0 0.0 0.00 0.00 0.00 89 1012.7
20260904043757 63 0 0.0 0.0 0.00 0.00 0.00 89 1012.7
20260904043618 63 0 0.0 0.0 0.00 0.00 0.00 89 1012.7
20260904043252 63 0 0.0 0.0 0.00 0.00 0.00 89 1012.6
20260904043117 63 0 0.0 0.0 0.00 0.00 0.00 89 1012.6
20260904042824 63 0 0.0 0.0 0.00 0.00 0.00 89 1012.6
20260904042617 63 0 0.0 0.0 0.00 0.00 0.00 89 1012.6
20260904042117 63 0 0.0 0.0 0.00 0.00 0.00 89 1012.6
20260904041750 63 0 0.0 0.0 0.00 0.00 0.00 89 1012.7
20260904041617 63 0 0.0 0.0 0.00 0.00 0.00 89 1012.7
20260904041321 63 0 0.0 0.0 0.00 0.00 0.00 89 1012.6
20260904041117 63 0 0.0 0.0 0.00 0.00 0.00 89 1012.6
20260904040847 63 0 0.0 0.0 0.00 0.00 0.00 89 1012.3
20260904040617 63 0 0.0 0.0 0.00 0.00 0.00 89 1012.3
20260904040250 63 0 0.0 0.0 0.00 0.00 0.00 89 1012.3
20260904040117 63 0 0.0 0.0 0.00 0.00 0.00 89 1012.3
20260904035618 63 0 0.0 0.0 0.00 0.00 0.00 89 1012.4
20260904035006 63 0 0.0 0.0 0.00 0.00 0.00 89 1012.7
20260904034825 63 0 0.0 0.0 0.00 0.00 0.00 89 1012.7
20260904034516 63 0 0.0 0.0 0.00 0.00 0.00 89 1012.7
20260904034324 63 0 0.0 0.0 0.00 0.00 0.00 89 1012.7
20260904033824 63 0 0.0 0.0 0.00 0.00 0.00 89 1012.8
20260904033324 63 0 0.0 0.0 0.00 0.00 0.00 89 1012.9
20260904033019 63 0 0.0 0.0 0.00 0.00 0.00 89 1013.0
20260904032824 63 0 0.0 0.0 0.00 0.00 0.00 89 1013.0
20260904032225 63 0 0.0 0.0 0.00 0.00 0.00 89 1012.9
20260904032056 63 0 0.0 0.0 0.00 0.00 0.00 89 1012.9
20260904031721 63 0 0.0 0.0 0.00 0.00 0.00 89 1013.0
20260904031556 63 0 0.0 0.0 0.00 0.00 0.00 89 1013.0
20260904031206 63 0 0.0 0.0 0.00 0.00 0.00 89 1013.1
20260904031056 63 0 0.0 0.0 0.00 0.00 0.00 89 1013.1
20260904030154 63 0 0.0 0.0 0.00 0.00 0.00 89 1013.2
20260904030057 63 0 0.0 0.0 0.00 0.00 0.00 89 1013.2
20260904025711 63 0 0.0 0.0 0.00 0.00 0.00 89 1013.2
20260904025556 63 0 0.0 0.0 0.00 0.00 0.00 89 1013.2
20260904025320 63 0 0.0 0.0 0.00 0.00 0.00 88 1013.2
20260904025243 63 0 0.0 0.0 0.00 0.00 0.00 88 1013.2
20260904025056 63 0 0.0 0.0 0.00 0.00 0.00 88 1013.2
20260904024947 63 0 0.0 0.0 0.00 0.00 0.00 88 1013.1
20260904024556 63 0 0.0 0.0 0.00 0.00 0.00 88 1013.1
20260904024206 63 0 0.0 0.0 0.00 0.00 0.00 88 1013.1
20260904024057 63 0 0.0 0.0 0.00 0.00 0.00 88 1013.1
20260904023824 63 0 0.0 0.0 0.00 0.00 0.00 88 1013.0
20260904023556 63 0 0.0 0.0 0.00 0.00 0.00 88 1013.0
20260904023246 63 0 0.0 0.0 0.00 0.00 0.00 88 1012.9
20260904023056 63 0 0.0 0.0 0.00 0.00 0.00 88 1012.9
20260904022914 64 0 0.0 0.0 0.00 0.00 0.00 88 1012.9
20260904022556 64 0 0.0 0.0 0.00 0.00 0.00 88 1012.9
20260904022219 64 0 0.0 0.0 0.00 0.00 0.00 88 1012.9
20260904022056 64 0 0.0 0.0 0.00 0.00 0.00 88 1012.9
20260904022029 64 0 0.0 0.0 0.00 0.00 0.00 88 1013.0
20260904021556 64 0 0.0 0.0 0.00 0.00 0.00 88 1013.0
20260904021211 64 0 0.0 0.0 0.00 0.00 0.00 88 1013.0
20260904021056 64 0 0.0 0.0 0.00 0.00 0.00 88 1013.0
20260904020825 64 0 0.0 0.0 0.00 0.00 0.00 88 1013.0
20260904020556 64 0 0.0 0.0 0.00 0.00 0.00 88 1013.0
20260904020303 64 0 0.0 0.0 0.00 0.00 0.00 88 1013.0
20260904020056 64 0 0.0 0.0 0.00 0.00 0.00 88 1013.0
20260904015723 64 0 0.0 0.0 0.00 0.00 0.00 88 1013.0
20260904015556 64 0 0.0 0.0 0.00 0.00 0.00 88 1013.0
20260904015236 64 0 0.0 0.0 0.00 0.00 0.00 88 1013.0
20260904015056 64 0 0.0 0.0 0.00 0.00 0.00 88 1013.0
20260904014828 64 0 0.0 0.0 0.00 0.00 0.00 88 1012.9
20260904014556 64 0 0.0 0.0 0.00 0.00 0.00 88 1012.9
20260904014158 64 0 0.0 0.0 0.00 0.00 0.00 88 1013.0
20260904014057 64 0 0.0 0.0 0.00 0.00 0.00 88 1013.0
20260904013206 64 0 0.0 0.0 0.00 0.00 0.00 87 1012.9
20260904013056 64 0 0.0 0.0 0.00 0.00 0.00 87 1012.9
20260904012918 64 0 0.0 0.0 0.00 0.00 0.00 87 1012.8
20260904012556 64 0 0.0 0.0 0.00 0.00 0.00 87 1012.8
20260904012206 64 0 0.0 0.0 0.00 0.00 0.00 87 1012.8
20260904012056 64 0 0.0 0.0 0.00 0.00 0.00 87 1012.8
20260904011906 64 0 0.0 0.0 0.00 0.00 0.00 87 1012.9
20260904011556 64 0 0.0 0.0 0.00 0.00 0.00 87 1012.9
20260904011211 64 0 0.0 0.0 0.00 0.00 0.00 87 1012.9
20260904011056 64 0 0.0 0.0 0.00 0.00 0.00 87 1012.9
20260904010239 64 0 0.0 0.0 0.00 0.00 0.00 86 1013.1
20260904010056 64 0 0.0 0.0 0.00 0.00 0.00 86 1013.1
20260904005830 64 0 0.0 0.0 0.00 0.00 0.00 86 1013.1
20260904005556 64 0 0.0 0.0 0.00 0.00 0.00 86 1013.1
20260904005403 64 0 0.0 0.0 0.00 0.00 0.00 86 1013.3
20260904005056 64 0 0.0 0.0 0.00 0.00 0.00 86 1013.3
20260904004912 64 0 0.0 0.0 0.00 0.00 0.00 86 1013.4
20260904004556 64 0 0.0 0.0 0.00 0.00 0.00 86 1013.4
20260904004242 64 0 0.0 0.0 0.00 0.00 0.00 86 1013.3
20260904004057 64 0 0.0 0.0 0.00 0.00 0.00 86 1013.3
20260904003430 64 0 0.0 0.0 0.00 0.00 0.00 86 1013.2
20260904003344 64 0 0.0 0.0 0.00 0.00 0.00 86 1013.2
20260904003039 64 0 0.0 0.0 0.00 0.00 0.00 86 1013.3
20260904002844 64 0 0.0 0.0 0.00 0.00 0.00 86 1013.3
20260904002428 64 0 0.0 0.0 0.00 0.00 0.00 86 1013.3
20260904002344 64 0 0.0 0.0 0.00 0.00 0.00 86 1013.3
20260904002021 64 0 0.0 0.0 0.00 0.00 0.00 86 1013.3
20260904001844 64 0 0.0 0.0 0.00 0.00 0.00 86 1013.3
20260904001512 64 0 0.0 0.0 0.00 0.00 0.00 86 1013.3
20260904001344 64 0 0.0 0.0 0.00 0.00 0.00 86 1013.3
20260904000937 64 0 0.0 0.0 0.00 0.00 0.00 85 1013.4
20260904000844 64 0 0.0 0.0 0.00 0.00 0.00 85 1013.4
20260904000601 64 0 0.0 0.0 0.00 0.00 0.00 85 1013.4
20260904000344 64 0 0.0 0.0 0.00 0.00 0.00 85 1013.4
20260904000030 64 0 0.0 0.0 0.00 0.00 0.00 85 1013.4
20260903235844 64 0 0.0 0.0 0.00 0.00 0.00 85 1013.4
20260903235328 64 0 0.0 0.0 0.00 0.00 0.00 85 1013.5
20260903235110 64 0 0.0 0.0 0.00 0.00 0.00 85 1013.5
20260903234835 64 0 0.0 0.0 0.00 0.00 0.00 85 1013.6
20260903234610 64 0 0.0 0.0 0.00 0.00 0.00 85 1013.6
20260903234251 64 0 0.0 0.0 0.00 0.00 0.00 85 1013.5
20260903234110 64 0 0.0 0.0 0.00 0.00 0.00 85 1013.5
20260903233905 64 0 0.0 0.0 0.00 0.00 0.00 85 1013.6
20260903233610 64 0 0.0 0.0 0.00 0.00 0.00 85 1013.6
20260903233235 64 0 0.0 0.0 0.00 0.00 0.00 85 1013.6
20260903233110 64 0 0.0 0.0 0.00 0.00 0.00 85 1013.6
20260903232952 64 0 0.0 0.0 0.00 0.00 0.00 85 1013.5
20260903232610 64 0 0.0 0.0 0.00 0.00 0.00 85 1013.5
20260903232228 64 0 0.0 0.0 0.00 0.00 0.00 84 1013.6
20260903232110 64 0 0.0 0.0 0.00 0.00 0.00 84 1013.6
20260903231959 65 0 0.0 0.0 0.00 0.00 0.00 84 1013.6
20260903231610 65 0 0.0 0.0 0.00 0.00 0.00 84 1013.6
20260903231110 65 0 0.0 0.0 0.00 0.00 0.00 84 1013.6
20260903230802 65 0 0.0 0.0 0.00 0.00 0.00 84 1013.6
20260903230610 65 0 0.0 0.0 0.00 0.00 0.00 84 1013.6
20260903230233 65 0 0.0 0.0 0.00 0.00 0.00 84 1013.6
20260903230110 65 0 0.0 0.0 0.00 0.00 0.00 84 1013.6
20260903225919 65 0 0.0 0.0 0.00 0.00 0.00 84 1013.7
20260903225610 65 0 0.0 0.0 0.00 0.00 0.00 84 1013.7
20260903225321 65 0 0.0 0.0 0.00 0.00 0.00 83 1013.7
20260903225110 65 0 0.0 0.0 0.00 0.00 0.00 83 1013.7
20260903224927 65 0 0.0 0.0 0.00 0.00 0.00 83 1013.6
20260903224610 65 0 0.0 0.0 0.00 0.00 0.00 83 1013.6
20260903224111 65 0 0.0 0.0 0.00 0.00 0.00 83 1013.6
20260903223826 65 0 0.0 0.0 0.00 0.00 0.00 82 1013.6
20260903223610 65 0 0.0 0.0 0.00 0.00 0.00 82 1013.6
20260903223232 65 0 0.0 0.0 0.00 0.00 0.00 82 1013.6
20260903223110 65 0 0.0 0.0 0.00 0.00 0.00 82 1013.6
20260903222951 65 0 0.0 0.0 0.00 0.00 0.00 81 1013.7
20260903222610 65 0 0.0 0.0 0.00 0.00 0.00 81 1013.7
20260903222208 65 0 0.0 0.0 0.00 0.00 0.00 81 1013.7
20260903222110 65 0 0.0 0.0 0.00 0.00 0.00 81 1013.7
20260903221846 66 0 0.0 0.0 0.00 0.00 0.00 81 1013.7
20260903221610 66 0 0.0 0.0 0.00 0.00 0.00 81 1013.7
20260903221314 66 0 0.0 0.0 0.00 0.00 0.00 80 1013.7
20260903221110 66 0 0.0 0.0 0.00 0.00 0.00 80 1013.7
20260903220825 66 0 0.0 0.0 0.00 0.00 0.00 80 1013.7
20260903220610 66 0 0.0 0.0 0.00 0.00 0.00 80 1013.7
20260903220249 66 0 0.0 0.0 0.00 0.00 0.00 79 1013.7
20260903220058 66 0 0.0 0.0 0.00 0.00 0.00 79 1013.7
20260903215750 66 0 0.0 0.0 0.00 0.00 0.00 79 1013.8
20260903215558 66 0 0.0 0.0 0.00 0.00 0.00 79 1013.8
20260903215300 66 0 0.0 0.0 0.00 0.00 0.00 79 1013.7
20260903215058 66 0 0.0 0.0 0.00 0.00 0.00 79 1013.7
20260903214844 66 0 0.0 0.0 0.00 0.00 0.00 78 1013.8
20260903214558 66 0 0.0 0.0 0.00 0.00 0.00 78 1013.8
20260903214151 66 0 0.0 0.0 0.00 0.00 0.00 78 1013.7
20260903214058 66 0 0.0 0.0 0.00 0.00 0.00 78 1013.7
20260903213837 66 0 0.0 0.0 0.00 0.00 0.00 77 1013.8
20260903213558 66 0 0.0 0.0 0.00 0.00 0.00 77 1013.8
20260903213220 66 0 0.0 0.0 0.00 0.00 0.00 77 1013.8
20260903213058 66 0 0.0 0.0 0.00 0.00 0.00 77 1013.8
20260903212821 67 0 0.0 0.0 0.00 0.00 0.00 76 1013.8
20260903212558 67 0 0.0 0.0 0.00 0.00 0.00 76 1013.8
20260903212140 67 0 0.0 0.0 0.00 0.00 0.00 76 1013.7
20260903212058 67 0 0.0 0.0 0.00 0.00 0.00 76 1013.7
20260903211820 67 0 0.0 0.0 0.00 0.00 0.00 75 1013.8
20260903211558 67 0 0.0 0.0 0.00 0.00 0.00 75 1013.8
20260903210851 67 0 0.0 0.0 0.00 0.00 0.00 74 1013.8
20260903210707 67 0 0.0 0.0 0.00 0.00 0.00 74 1013.8
20260903210309 67 0 0.0 0.0 0.00 0.00 0.00 74 1013.8
20260903210207 67 0 0.0 0.0 0.00 0.00 0.00 74 1013.8
20260903205823 67 0 0.0 0.0 0.00 0.00 0.00 74 1013.7
20260903205707 67 0 0.0 0.0 0.00 0.00 0.00 74 1013.7
20260903205323 67 0 0.0 0.0 0.00 0.00 0.00 74 1013.7
20260903205207 67 0 0.0 0.0 0.00 0.00 0.00 74 1013.7
20260903204840 67 0 0.0 0.0 0.00 0.00 0.00 73 1013.7
20260903204708 67 0 0.0 0.0 0.00 0.00 0.00 73 1013.7
20260903204326 67 0 0.0 0.0 0.00 0.00 0.00 73 1013.7
20260903204207 67 0 0.0 0.0 0.00 0.00 0.00 73 1013.7
20260903203848 67 0 0.0 0.0 0.00 0.00 0.00 73 1013.8
20260903203707 67 0 0.0 0.0 0.00 0.00 0.00 73 1013.8
20260903203300 66 0 0.0 0.0 0.00 0.00 0.00 73 1013.9
20260903203207 66 0 0.0 0.0 0.00 0.00 0.00 73 1013.9
20260903202801 66 0 0.0 0.0 0.00 0.00 0.00 73 1013.7
20260903202707 66 0 0.0 0.0 0.00 0.00 0.00 73 1013.7
20260903201336 66 0 0.0 0.0 0.00 0.00 0.00 72 1013.6
20260903201207 66 0 0.0 0.0 0.00 0.00 0.00 72 1013.6
20260903200759 66 0 0.0 0.0 0.00 0.00 0.00 72 1013.6
20260903200707 66 0 0.0 0.0 0.00 0.00 0.00 72 1013.6
20260903200207 67 0 0.0 0.0 0.00 0.00 0.00 71 1013.6
20260903195758 67 0 0.0 0.0 0.00 0.00 0.00 71 1013.5
20260903195707 67 0 0.0 0.0 0.00 0.00 0.00 71 1013.5
20260903195348 67 0 0.0 0.0 0.00 0.00 0.00 71 1013.5
20260903195208 67 0 0.0 0.0 0.00 0.00 0.00 71 1013.5
20260903194907 67 0 0.0 0.0 0.00 0.00 0.00 70 1013.4
20260903194707 67 0 0.0 0.0 0.00 0.00 0.00 70 1013.4
20260903194317 67 0 0.0 0.0 0.00 0.00 0.00 70 1013.5
20260903194207 67 0 0.0 0.0 0.00 0.00 0.00 70 1013.5
20260903193919 67 0 0.0 0.0 0.00 0.00 0.00 69 1013.6
20260903193707 67 0 0.0 0.0 0.00 0.00 0.00 69 1013.6
20260903193315 67 0 0.0 0.0 0.00 0.00 0.00 69 1013.5
20260903193207 67 0 0.0 0.0 0.00 0.00 0.00 69 1013.5
20260903192818 68 0 0.0 0.0 0.00 0.00 0.00 68 1013.6
20260903192707 68 0 0.0 0.0 0.00 0.00 0.00 68 1013.6
20260903191711 68 0 0.0 0.0 0.00 0.00 0.00 67 1013.6
20260903190913 68 0 0.0 0.0 0.00 0.00 0.00 66 1013.7
20260903190711 68 0 0.0 0.0 0.00 0.00 0.00 66 1013.7
20260903190248 69 0 0.0 0.0 0.00 0.00 0.00 66 1013.7
20260903190211 69 0 0.0 0.0 0.00 0.00 0.00 66 1013.7
20260903185327 69 0 0.0 0.0 0.00 0.00 0.00 65 1013.8
20260903185211 69 0 0.0 0.0 0.00 0.00 0.00 65 1013.8
20260903184907 69 0 0.0 0.0 0.00 0.00 0.00 65 1013.9
20260903184711 69 0 0.0 0.0 0.00 0.00 0.00 65 1013.9
20260903184323 69 0 0.0 0.0 0.00 0.00 0.00 65 1013.8
20260903184212 69 0 0.0 0.0 0.00 0.00 0.00 65 1013.8
20260903183825 69 0 0.0 0.0 0.00 0.00 0.00 65 1013.8
20260903183558 69 0 0.0 0.0 0.00 0.00 0.00 65 1013.8
20260903183143 69 0 0.0 0.0 0.00 0.00 0.00 64 1013.7
20260903183058 69 0 0.0 0.0 0.00 0.00 0.00 64 1013.7
20260903182745 69 0 0.0 0.0 0.00 0.00 0.00 64 1013.7
20260903182558 69 0 0.0 0.0 0.00 0.00 0.00 64 1013.7
20260903182058 69 0 0.0 0.0 0.00 0.00 0.00 64 1013.7
20260903181558 70 0 0.0 0.0 0.00 0.00 0.00 64 1013.8
20260903181058 70 0 0.0 0.0 0.00 0.00 0.00 64 1013.8
20260903180657 70 0 0.0 0.0 0.00 0.00 0.00 64 1013.8
20260903180558 70 0 0.0 0.0 0.00 0.00 0.00 64 1013.8
20260903180206 70 0 0.0 0.0 0.00 0.00 0.00 64 1013.7